FW8903 Weather Reports


time (UTC)temp
C
wind
direction
speed
KPH
gust
KPH
rain 1hr
cm
rain 24hr
cm
rain mn
cm
humidity
%
barometer
mb
20260507020041 -3 75 0.0 0.0 0.00 0.00 0.00 96 1012.9
20260507014534 -3 75 0.0 0.0 0.00 0.00 0.00 95 1012.8
20260507013030 -2 75 0.0 0.0 0.00 0.00 0.00 95 1012.8
20260507011526 -2 75 0.0 0.0 0.00 0.00 0.00 95 1012.7
20260507010028 -2 75 0.0 0.0 0.00 0.00 0.00 95 1012.7
20260507004530 -2 75 0.0 0.0 0.00 0.00 0.00 95 1012.6
20260507003028 -2 75 0.0 0.0 0.00 0.00 0.00 95 1012.6
20260507001534 -2 75 0.0 0.0 0.00 0.00 0.00 95 1012.5
20260507000022 -2 75 0.0 0.0 0.00 0.00 0.00 95 1012.4
20260506234521 -2 75 0.0 0.0 0.00 0.00 0.00 95 1012.3
20260506233017 -2 75 0.0 0.0 0.00 0.00 0.00 95 1012.2
20260506231517 -2 75 0.0 0.0 0.00 0.00 0.00 95 1012.2
20260506230016 -2 75 0.0 0.0 0.00 0.00 0.00 95 1012.1
20260506224515 -2 75 0.0 0.0 0.00 0.00 0.00 95 1012.0
20260506223013 -2 75 0.0 0.0 0.00 0.00 0.00 95 1012.0
20260506221512 -2 75 0.0 0.0 0.00 0.00 0.00 95 1011.9
20260506220011 -2 75 0.0 0.0 0.00 0.00 0.00 95 1011.8
20260506214510 -2 75 0.0 0.0 0.00 0.00 0.00 95 1011.8
20260506213011 -2 75 0.0 0.0 0.00 0.00 0.00 95 1011.6
20260506211505 -2 75 0.0 0.0 0.00 0.00 0.00 95 1011.5
20260506210004 -2 75 0.0 0.0 0.00 0.00 0.00 94 1011.5
20260506204502 -2 75 0.0 0.0 0.00 0.00 0.00 94 1011.5
20260506203059 -2 75 0.0 0.0 0.00 0.00 0.00 92 1011.5
20260506201556 -1 75 0.0 0.0 0.00 0.00 0.00 92 1011.3
20260506200051 -1 75 0.0 0.0 0.00 0.00 0.00 91 1011.3
20260506194600 0 75 0.0 0.0 0.00 0.00 0.00 91 1011.1
20260506193049 0 75 0.0 0.0 0.00 0.00 0.00 91 1011.0
20260506191544 1 75 0.0 0.0 0.00 0.00 0.00 90 1010.9
20260506190044 1 55 0.0 1.6 0.00 0.00 0.00 89 1010.7
20260506184541 1 82 0.0 0.0 0.00 0.03 0.00 88 1010.5
20260506183040 2 139 0.0 0.0 0.00 0.03 0.00 87 1010.5
20260506181545 2 145 0.0 0.0 0.00 0.03 0.00 86 1010.6
20260506180042 2 95 0.0 0.0 0.00 0.03 0.00 85 1010.5
20260506174537 2 37 0.0 1.6 0.00 0.05 0.00 84 1010.4
20260506173035 2 236 0.0 0.0 0.00 0.05 0.00 84 1010.3
20260506171549 2 68 0.0 6.4 0.00 0.05 0.00 83 1010.3
20260506170038 2 179 0.0 0.0 0.00 0.05 0.00 83 1010.2
20260506164534 2 277 0.0 0.0 0.00 0.05 0.00 81 1010.1
20260506163041 3 346 0.0 6.4 0.00 0.05 0.00 78 1010.1
20260506161529 3 229 0.0 0.0 0.00 0.05 0.00 69 1009.8
20260506160030 4 44 0.0 0.0 0.00 0.05 0.00 68 1009.3
20260506154527 4 1 0.0 3.2 0.00 0.08 0.00 65 1009.3
20260506153027 5 228 0.0 8.0 0.00 0.08 0.00 62 1009.5
20260506151532 6 288 0.0 12.9 0.00 0.08 0.00 52 1009.2
20260506150022 6 246 0.0 1.6 0.00 0.08 0.00 47 1009.0
20260506144521 6 201 0.0 0.0 0.00 0.08 0.00 47 1008.9
20260506143021 6 221 0.0 1.6 0.00 0.08 0.00 47 1008.9
20260506141519 6 233 0.0 3.2 0.00 0.08 0.00 46 1008.9
20260506140023 7 259 0.0 3.2 0.00 0.08 0.00 44 1008.8
20260506134517 7 176 0.0 4.8 0.00 0.08 0.00 46 1008.7
20260506133036 7 314 0.0 4.8 0.00 0.08 0.00 43 1008.6
20260506131520 8 217 0.0 4.8 0.00 0.08 0.00 42 1008.6
20260506130012 7 16 0.0 6.4 0.00 0.08 0.00 42 1008.6
20260506124510 8 222 1.6 8.0 0.00 0.08 0.00 43 1008.5
20260506123007 7 183 0.0 4.8 0.00 0.08 0.00 44 1008.5
20260506121503 6 271 0.0 0.0 0.00 0.08 0.00 47 1008.4
20260506120100 5 212 0.0 1.6 0.00 0.08 0.00 50 1008.4
20260506114604 5 98 0.0 3.2 0.00 0.08 0.00 47 1008.3
20260506113101 5 330 0.0 3.2 0.00 0.08 0.00 47 1008.2
20260506111605 5 47 0.0 3.2 0.00 0.08 0.00 47 1008.1
20260506110054 5 333 0.0 1.6 0.00 0.08 0.00 47 1008.1
20260506104558 5 71 0.0 3.2 0.00 0.08 0.00 50 1007.8
20260506103058 5 34 0.0 3.2 0.00 0.08 0.00 49 1007.8
20260506101552 5 60 0.0 0.0 0.00 0.08 0.00 50 1007.6
20260506100051 5 82 3.2 9.7 0.00 0.08 0.00 51 1007.5
20260506094545 5 72 0.0 4.8 0.00 0.08 0.00 51 1007.3
20260506093044 5 333 0.0 4.8 0.00 0.08 0.00 50 1007.2
20260506091542 5 78 0.0 6.4 0.00 0.08 0.00 50 1006.9
20260506090041 5 200 0.0 11.3 0.00 0.08 0.00 48 1006.8
20260506084542 5 43 0.0 1.6 0.00 0.20 0.00 50 1006.7
20260506083035 5 83 0.0 8.0 0.00 0.20 0.00 55 1006.6
20260506081532 4 245 0.0 4.8 0.00 0.20 0.00 55 1006.5
20260506073024 3 37 1.6 6.4 0.00 0.25 0.00 59 1006.1
20260506071521 3 115 3.2 12.9 0.00 0.25 0.00 60 1005.9
20260506061507 2 90 0.0 3.2 0.00 0.25 0.00 65 1005.4
20260506044613 1 27 0.0 4.8 0.00 0.25 0.00 80 1004.7
20260506043049 0 331 0.0 6.4 0.00 0.25 0.00 81 1004.6
20260506041548 1 63 1.6 8.0 0.00 0.25 0.00 81 1004.4
20260506040047 0 96 0.0 6.4 0.00 0.25 0.00 81 1004.3
20260506034543 0 62 0.0 4.8 0.00 0.25 0.00 83 1004.2
20260506033043 0 61 0.0 4.8 0.00 0.25 0.00 85 1004.1
20260506031541 0 16 0.0 4.8 0.00 0.25 0.00 85 1003.9
20260506030037 0 71 0.0 3.2 0.00 0.25 0.00 86 1003.7
20260506024537 0 321 0.0 3.2 0.00 0.25 0.00 86 1003.6
20260506023046 0 82 0.0 1.6 0.00 0.25 0.00 87 1003.5
20260506021534 0 106 0.0 3.2 0.00 0.25 0.00 87 1003.3